EN

Hourly Weather Abdulovo

Today, 18 June, Friday

Time Temperature Precipitation Wind Pressure Humidity
00:00 +16°C° 0 mm 5 mps 746 mmHg 67%
01:00 +15°C° 0 mm 5 mps 746 mmHg 66%
02:00 +14°C° 0 mm 5 mps 746 mmHg 68%
03:00 +14°C° 0 mm 5 mps 747 mmHg 70%
04:00 +13°C° 0 mm 4 mps 747 mmHg 71%
05:00 +14°C° 0 mm 5 mps 747 mmHg 68%
06:00 +15°C° 0 mm 6 mps 748 mmHg 66%
07:00 +16°C° 0 mm 7 mps 748 mmHg 63%
08:00 +17°C° 0 mm 7 mps 748 mmHg 59%
09:00 +18°C° 0 mm 7 mps 748 mmHg 55%
10:00 +20°C° 0 mm 8 mps 749 mmHg 51%
11:00 +21°C° 0 mm 8 mps 749 mmHg 48%
12:00 +21°C° 0 mm 8 mps 749 mmHg 46%
13:00 +22°C° 0 mm 8 mps 749 mmHg 44%
14:00 +21°C° 0 mm 8 mps 749 mmHg 46%
15:00 +21°C° 0 mm 8 mps 750 mmHg 48%
16:00 +20°C° 0 mm 8 mps 750 mmHg 50%
17:00 +18°C° 0 mm 8 mps 750 mmHg 51%
18:00 +18°C° 0 mm 7 mps 751 mmHg 53%
19:00 +17°C° 0 mm 7 mps 751 mmHg 55%
20:00 +16°C° 0 mm 6 mps 751 mmHg 60%
21:00 +14°C° 0 mm 5 mps 752 mmHg 66%
22:00 +13°C° 0 mm 4 mps 752 mmHg 71%
23:00 +12°C° 0 mm 4 mps 752 mmHg 72%

Tomorrow, 19 June, Saturday

Time Temperature Precipitation Wind Pressure Humidity
00:00 +12°C° 0 mm 4 mps 753 mmHg 74%
01:00 +11°C° 0 mm 4 mps 753 mmHg 75%
02:00 +11°C° 0 mm 3 mps 753 mmHg 75%
03:00 +10°C° 0 mm 3 mps 753 mmHg 74%
04:00 +10°C° 0 mm 3 mps 754 mmHg 73%
05:00 +11°C° 0 mm 3 mps 754 mmHg 68%
06:00 +13°C° 0 mm 3 mps 754 mmHg 63%
07:00 +15°C° 0 mm 2 mps 754 mmHg 58%
08:00 +17°C° 0 mm 3 mps 754 mmHg 52%
09:00 +19°C° 0 mm 3 mps 754 mmHg 46%
10:00 +21°C° 0 mm 3 mps 754 mmHg 40%
11:00 +21°C° 0 mm 3 mps 754 mmHg 41%
12:00 +22°C° 0 mm 4 mps 753 mmHg 41%
13:00 +23°C° 0 mm 4 mps 753 mmHg 41%
14:00 +25°C° 0 mm 5 mps 753 mmHg 42%
15:00 +25°C° 0 mm 5 mps 752 mmHg 44%
16:00 +24°C° 0 mm 6 mps 752 mmHg 45%
17:00 +23°C° 0 mm 5 mps 752 mmHg 49%
18:00 +23°C° 0 mm 5 mps 752 mmHg 53%
19:00 +22°C° 0 mm 5 mps 751 mmHg 57%
20:00 +20°C° 0 mm 4 mps 751 mmHg 64%
21:00 +19°C° 0 mm 4 mps 751 mmHg 70%
22:00 +17°C° 0 mm 3 mps 751 mmHg 77%
23:00 +17°C° 0 mm 3 mps 751 mmHg 79%

Day after tomorrow, 20 June, Sunday

Time Temperature Precipitation Wind Pressure Humidity
00:00 +16°C° 0 mm 3 mps 751 mmHg 82%
01:00 +16°C° 0 mm 3 mps 751 mmHg 84%
02:00 +16°C° 0 mm 3 mps 750 mmHg 84%
03:00 +15°C° 0 mm 4 mps 750 mmHg 85%
04:00 +15°C° 0 mm 4 mps 750 mmHg 85%
05:00 +16°C° 0 mm 5 mps 750 mmHg 81%
06:00 +19°C° 0 mm 6 mps 750 mmHg 77%
07:00 +21°C° 0 mm 7 mps 750 mmHg 74%
08:00 +22°C° 0 mm 7 mps 750 mmHg 68%
09:00 +24°C° 0 mm 7 mps 750 mmHg 63%
10:00 +27°C° 0 mm 7 mps 749 mmHg 57%
11:00 +28°C° 0 mm 7 mps 749 mmHg 54%
12:00 +29°C° 0 mm 8 mps 749 mmHg 50%
13:00 +31°C° 0 mm 8 mps 749 mmHg 47%
14:00 +31°C° 0 mm 8 mps 749 mmHg 47%
15:00 +31°C° 0 mm 8 mps 749 mmHg 47%
16:00 +31°C° 0 mm 8 mps 749 mmHg 47%
17:00 +29°C° 0.1 mm 7 mps 749 mmHg 54%
18:00 +28°C° 0.1 mm 7 mps 749 mmHg 61%
19:00 +27°C° 0.1 mm 6 mps 749 mmHg 68%
20:00 +25°C° 0.1 mm 5 mps 749 mmHg 75%
21:00 +22°C° 0.1 mm 5 mps 749 mmHg 82%
22:00 +21°C° 0.1 mm 4 mps 750 mmHg 89%
23:00 +19°C° 0 mm 4 mps 750 mmHg 84%

21 June, Monday

Time Temperature Precipitation Wind Pressure Humidity
00:00 +18°C° 0 mm 4 mps 750 mmHg 80%
01:00 +15°C° 0 mm 4 mps 750 mmHg 75%
02:00 +14°C° 0 mm 4 mps 751 mmHg 77%
03:00 +14°C° 0 mm 4 mps 751 mmHg 78%
04:00 +13°C° 0 mm 4 mps 751 mmHg 79%
05:00 +14°C° 0 mm 4 mps 752 mmHg 71%
06:00 +15°C° 0 mm 4 mps 752 mmHg 63%
07:00 +17°C° 0 mm 5 mps 752 mmHg 55%
08:00 +19°C° 0 mm 5 mps 752 mmHg 49%
09:00 +20°C° 0 mm 5 mps 753 mmHg 42%
10:00 +22°C° 0 mm 6 mps 753 mmHg 36%
11:00 +23°C° 0 mm 5 mps 753 mmHg 35%
12:00 +25°C° 0 mm 5 mps 752 mmHg 33%
13:00 +26°C° 0 mm 5 mps 752 mmHg 32%
14:00 +26°C° 0 mm 5 mps 752 mmHg 34%
15:00 +26°C° 0 mm 5 mps 752 mmHg 35%
16:00 +26°C° 0 mm 5 mps 752 mmHg 37%
17:00 +25°C° 0 mm 5 mps 752 mmHg 42%
18:00 +23°C° 0 mm 4 mps 752 mmHg 48%
19:00 +23°C° 0 mm 4 mps 752 mmHg 53%
20:00 +21°C° 0 mm 3 mps 752 mmHg 58%
21:00 +19°C° 0 mm 3 mps 752 mmHg 62%
22:00 +17°C° 0 mm 2 mps 751 mmHg 67%
23:00 +17°C° 0 mm 2 mps 751 mmHg 68%

22 June, Tuesday

Time Temperature Precipitation Wind Pressure Humidity
00:00 +18°C° 0 mm 1 mps 751 mmHg 69%
01:00 +16°C° 0 mm 1 mps 751 mmHg 70%
02:00 +16°C° 0 mm 1 mps 751 mmHg 70%
03:00 +16°C° 0 mm 1 mps 751 mmHg 70%
04:00 +16°C° 0 mm 1 mps 751 mmHg 69%
05:00 +19°C° 0 mm 1 mps 751 mmHg 65%
06:00 +20°C° 0 mm 2 mps 751 mmHg 61%
07:00 +23°C° 0 mm 2 mps 751 mmHg 57%
08:00 +24°C° 0 mm 3 mps 751 mmHg 55%
09:00 +26°C° 0 mm 4 mps 751 mmHg 52%
10:00 +28°C° 0 mm 5 mps 751 mmHg 50%
11:00 +29°C° 0 mm 5 mps 750 mmHg 48%
12:00 +30°C° 0 mm 6 mps 750 mmHg 46%
13:00 +32°C° 0 mm 6 mps 750 mmHg 43%
14:00 +32°C° 0 mm 6 mps 749 mmHg 42%
15:00 +33°C° 0 mm 6 mps 749 mmHg 40%
16:00 +33°C° 0 mm 7 mps 749 mmHg 39%
17:00 +32°C° 0 mm 6 mps 749 mmHg 43%
18:00 +30°C° 0 mm 5 mps 749 mmHg 48%
19:00 +29°C° 0 mm 4 mps 749 mmHg 52%
20:00 +27°C° 0 mm 4 mps 748 mmHg 59%
21:00 +26°C° 0 mm 3 mps 748 mmHg 66%
22:00 +24°C° 0 mm 3 mps 748 mmHg 73%
23:00 +22°C° 0 mm 3 mps 748 mmHg 77%

23 June, Wednesday

Time Temperature Precipitation Wind Pressure Humidity
00:00 +22°C° 0 mm 3 mps 748 mmHg 80%
01:00 +21°C° 0 mm 2 mps 748 mmHg 83%
02:00 +21°C° 0 mm 2 mps 748 mmHg 85%
03:00 +21°C° 0 mm 2 mps 748 mmHg 86%
04:00 +20°C° 0 mm 2 mps 748 mmHg 87%
05:00 +23°C° 0 mm 2 mps 748 mmHg 81%
06:00 +24°C° 0 mm 3 mps 748 mmHg 74%
07:00 +25°C° 0 mm 3 mps 749 mmHg 68%
08:00 +26°C° 0 mm 4 mps 749 mmHg 63%
09:00 +27°C° 0 mm 4 mps 749 mmHg 58%
10:00 +29°C° 0 mm 5 mps 749 mmHg 53%
11:00 +29°C° 0 mm 5 mps 749 mmHg 50%
12:00 +30°C° 0 mm 5 mps 749 mmHg 47%
13:00 +30°C° 0 mm 5 mps 749 mmHg 44%
14:00 +30°C° 0 mm 5 mps 749 mmHg 44%
15:00 +30°C° 0 mm 6 mps 749 mmHg 44%
16:00 +30°C° 0 mm 6 mps 748 mmHg 44%
17:00 +28°C° 0 mm 5 mps 748 mmHg 48%
18:00 +27°C° 0 mm 5 mps 748 mmHg 52%
19:00 +26°C° 0 mm 5 mps 748 mmHg 57%
20:00 +23°C° 0 mm 4 mps 748 mmHg 62%
21:00 +21°C° 0 mm 4 mps 748 mmHg 68%
22:00 +19°C° 0 mm 4 mps 749 mmHg 74%
23:00 +18°C° 0 mm 4 mps 749 mmHg 75%
Show more